EW7643 Weather Reports


Display with metric or nautical units.
time (UTC)temp
F
wind
direction
speed
MPH
gust
MPH
rain 1hr
in
rain 24hr
in
rain mn
in
humidity
%
barometer
mb
20260509063031 73 82 0.0 0.0 0.00 0.02 0.00 68 1010.1
20260509061523 74 82 0.0 0.0 0.00 0.02 0.00 68 1010.3
20260509060015 75 82 0.0 0.0 0.00 0.02 0.00 68 1010.2
20260509054518 75 82 0.0 0.0 0.00 0.02 0.00 69 1010.2
20260509053016 75 116 0.0 0.0 0.00 0.02 0.00 69 1010.4
20260509051522 75 136 0.0 0.0 0.00 0.02 0.00 69 1010.3
20260509050035 75 117 0.0 0.0 0.00 0.02 0.00 69 1010.6
20260509044508 75 148 0.0 0.0 0.00 0.02 0.02 69 1010.7
20260509043022 75 63 0.0 0.0 0.00 0.02 0.02 69 1010.7
20260509041516 75 63 0.0 0.0 0.00 0.02 0.02 69 1010.6
20260509040024 75 63 0.0 0.0 0.00 0.02 0.02 70 1010.7
20260509034524 75 63 0.0 0.0 0.00 0.02 0.02 70 1010.2
20260509033009 75 63 0.0 0.0 0.00 0.02 0.02 70 1010.3
20260509031519 75 41 0.0 0.0 0.00 0.02 0.02 70 1010.2
20260509030032 75 59 0.0 0.0 0.00 0.02 0.02 70 1010.1
20260509024524 75 294 0.0 0.0 0.00 0.02 0.02 71 1010.0
20260509023028 74 63 0.0 0.0 0.00 0.02 0.02 71 1009.8
20260509021518 74 65 0.0 0.0 0.00 0.02 0.02 71 1009.9
20260509020017 74 68 0.0 0.0 0.00 0.02 0.02 71 1009.5
20260509014519 74 18 0.0 0.0 0.00 0.02 0.02 71 1009.4
20260509013042 74 77 0.0 0.0 0.00 0.02 0.02 72 1009.5
20260509011529 74 72 0.0 4.0 0.00 0.02 0.02 72 1009.5
20260509010017 74 87 0.0 1.0 0.00 0.02 0.02 73 1009.7
20260509004535 74 5 0.0 0.0 0.00 0.02 0.02 73 1009.5
20260509003027 74 9 0.0 0.0 0.00 0.02 0.02 75 1009.6
20260509001526 74 293 0.0 0.0 0.00 0.02 0.02 76 1009.4
20260509000027 75 70 0.0 2.0 0.00 0.02 0.02 78 1009.1
20260508234514 75 69 0.0 0.0 0.00 0.02 0.02 79 1009.7
20260508233022 75 18 0.0 0.0 0.00 0.02 0.02 79 1009.8
20260508231524 75 77 0.0 0.0 0.00 0.02 0.02 80 1009.2
20260508230039 75 68 0.0 0.0 0.00 0.02 0.02 80 1009.4
20260508224527 75 66 0.0 0.0 0.00 0.02 0.02 80 1009.4
20260508223020 75 359 0.0 0.0 0.00 0.02 0.02 80 1009.2
20260508221519 75 6 0.0 0.0 0.00 0.02 0.02 81 1009.6
20260508220022 75 6 0.0 0.0 0.00 0.02 0.02 81 1009.7
20260508214529 75 357 0.0 0.0 0.00 0.02 0.02 81 1009.8
20260508213009 75 68 0.0 0.0 0.00 0.02 0.02 81 1009.8
20260508211517 75 71 0.0 0.0 0.00 0.02 0.02 80 1009.9
20260508210023 74 50 0.0 0.0 0.00 0.02 0.02 80 1010.2
20260508204526 74 77 0.0 0.0 0.00 0.02 0.02 80 1010.1
20260508203026 74 58 0.0 0.0 0.00 0.02 0.02 79 1010.2
20260508201515 74 73 0.0 0.0 0.00 0.02 0.02 80 1010.8
20260508200018 74 53 0.0 0.0 0.01 0.02 0.02 80 1010.8
20260508194522 73 68 0.0 0.0 0.01 0.02 0.02 78 1011.0
20260508193026 72 74 0.0 0.0 0.01 0.02 0.02 73 1010.9
20260508191527 70 358 0.0 0.0 0.01 0.02 0.02 70 1010.8
20260508190021 69 68 0.0 0.0 0.00 0.01 0.01 68 1010.8
20260508184549 69 46 0.0 0.0 0.00 0.01 0.01 68 1011.2
20260508183023 68 82 0.0 0.0 0.00 0.01 0.01 69 1011.6
20260508181542 68 63 0.0 0.0 0.00 0.01 0.01 69 1012.0
20260508180032 68 12 0.0 0.0 0.01 0.01 0.01 69 1012.1
20260508174521 68 237 0.0 0.0 0.01 0.01 0.01 69 1012.2
20260508173022 68 338 0.0 0.0 0.01 0.01 0.01 70 1012.4
20260508171528 68 62 0.0 0.0 0.01 0.02 0.01 71 1012.0
20260508170036 68 64 0.0 0.0 0.00 0.01 0.00 72 1012.3
20260508164531 68 338 0.0 2.0 0.00 0.01 0.00 73 1013.0
20260508163019 68 27 1.0 5.0 0.00 0.01 0.00 74 1012.9
20260508161524 68 4 0.0 0.0 0.00 0.01 0.00 75 1013.4
20260508160029 68 323 0.0 0.0 0.00 0.01 0.00 75 1013.4
20260508154526 67 8 0.0 0.0 0.00 0.01 0.00 73 1013.2
20260508153030 67 46 0.0 0.0 0.00 0.01 0.00 72 1013.5
20260508151523 67 23 0.0 0.0 0.00 0.01 0.00 72 1013.3
20260508150025 67 226 0.0 0.0 0.00 0.01 0.00 71 1013.1
20260508144544 67 316 0.0 0.0 0.00 0.01 0.00 71 1013.2
20260508143027 66 40 0.0 0.0 0.00 0.01 0.00 71 1013.3
20260508141531 66 273 0.0 0.0 0.00 0.01 0.00 71 1013.6
20260508140037 0 0.0 0.0 0.00 0.01 0.00 1013.2
20260508134538 0 0.0 0.0 0.00 0.01 0.00 1013.2
20260508133049 0 0.0 0.0 0.00 0.01 0.00 1013.3
20260508131533 0 0.0 0.0 0.00 0.01 0.00 1013.4
20260508130031 0 0.0 0.0 0.00 0.01 0.00 1013.4
20260508124534 0 0.0 0.0 0.00 0.01 0.00 1013.1
20260508123034 0 0.0 0.0 0.00 0.01 0.00 1013.2
20260508121536 0 0.0 0.0 0.00 0.01 0.00 1013.4
20260508120032 0 0.0 0.0 0.00 0.01 0.00 1012.9
20260508114535 0 0.0 0.0 0.00 0.01 0.00 1012.7
20260508113038 0 0.0 0.0 0.00 0.01 0.00 1013.1
20260508111534 0 0.0 0.0 0.00 0.01 0.00 1013.2
20260508110047 0 0.0 0.0 0.00 0.01 0.00 1013.1
20260508104537 0 0.0 0.0 0.00 0.01 0.00 1012.7
20260508103033 0 0.0 0.0 0.00 0.01 0.00 1012.5
20260508101534 0 0.0 0.0 0.00 0.01 0.00 1012.6
20260508100033 0 0.0 0.0 0.00 0.01 0.00 1012.6
20260508094532 72 0.0 0.0 0.00 0.01 0.00 72 1013.0
20260508093029 71 11 0.0 0.0 0.00 0.01 0.00 74 1012.8
20260508091529 72 11 0.0 0.0 0.00 0.01 0.00 76 1012.8
20260508090024 72 61 0.0 0.0 0.00 0.01 0.00 78 1012.8
20260508084520 72 61 0.0 0.0 0.00 0.01 0.00 80 1012.8
20260508083025 72 67 0.0 0.0 0.00 0.01 0.00 81 1013.0
20260508081524 73 72 0.0 0.0 0.00 0.01 0.00 81 1012.9
20260508080025 73 70 0.0 0.0 0.00 0.01 0.00 81 1012.9
20260508074521 73 47 0.0 0.0 0.00 0.01 0.00 81 1012.7
20260508073026 73 56 0.0 0.0 0.00 0.01 0.00 81 1013.0
20260508071524 73 71 0.0 0.0 0.00 0.01 0.00 81 1013.3
20260508070012 73 30 0.0 0.0 0.00 0.01 0.00 81 1013.2
20260508064513 73 257 0.0 0.0 0.00 0.01 0.00 81 1013.1